KB3CNS Weather Reports


Display with metric or nautical units.
time (UTC)temp
F
wind
direction
speed
MPH
gust
MPH
rain 1hr
in
rain 24hr
in
rain mn
in
humidity
%
barometer
mb
20260509162006 50 198 5.0 19.0 0.02 0.24 0.18 90 1008.9
20260509161516 50 239 4.0 19.0 0.02 0.24 0.18 90 1008.9
20260509161007 50 205 5.0 12.0 0.01 0.23 0.17 90 1008.9
20260509160511 50 213 6.0 18.0 0.01 0.23 0.17 90 1008.8
20260509160021 50 230 6.0 18.0 0.00 0.22 0.16 90 1008.7
20260509155506 50 239 9.0 17.0 0.01 0.22 0.16 90 1008.7
20260509155009 50 224 7.0 16.0 0.01 0.22 0.16 90 1008.7
20260509154521 49 191 3.0 16.0 0.01 0.22 0.16 90 1008.9
20260509154009 49 213 7.0 14.0 0.01 0.22 0.16 90 1008.9
20260509153504 49 173 4.0 14.0 0.01 0.22 0.16 90 1008.9
20260509153008 49 224 4.0 14.0 0.01 0.22 0.16 90 1008.9
20260509152504 49 239 7.0 14.0 0.01 0.22 0.16 90 1008.9
20260509152006 49 214 6.0 14.0 0.01 0.22 0.16 90 1008.9
20260509151512 49 223 6.0 14.0 0.01 0.22 0.16 90 1008.8
20260509151006 49 205 4.0 16.0 0.01 0.22 0.16 90 1008.9
20260509150506 49 220 6.0 16.0 0.02 0.22 0.16 90 1008.8
20260509150040 49 165 4.0 19.0 0.03 0.22 0.16 90 1008.9
20260509145510 49 230 6.0 19.0 0.02 0.21 0.15 90 1009.0
20260509145007 49 212 5.0 14.0 0.03 0.21 0.15 90 1008.9
20260509144529 49 238 7.0 14.0 0.04 0.21 0.15 90 1008.9
20260509144010 49 198 6.0 14.0 0.04 0.21 0.15 90 1008.9
20260509143507 49 176 6.0 13.0 0.04 0.21 0.15 90 1009.0
20260509143026 49 215 4.0 14.0 0.04 0.21 0.15 90 1008.9
20260509142509 49 165 4.0 14.0 0.04 0.21 0.15 90 1009.1
20260509142008 49 150 5.0 12.0 0.04 0.21 0.15 90 1009.1
20260509141510 49 221 5.0 10.0 0.05 0.21 0.15 90 1009.1
20260509141007 49 193 4.0 10.0 0.05 0.21 0.15 90 1009.2
20260509140546 49 212 4.0 9.0 0.04 0.20 0.14 90 1009.1
20260509140010 49 163 4.0 11.0 0.03 0.19 0.13 90 1009.3
20260509135506 49 151 5.0 11.0 0.04 0.19 0.13 90 1009.2
20260509135007 49 177 4.0 9.0 0.03 0.18 0.12 90 1009.2
20260509134520 49 196 3.0 12.0 0.03 0.17 0.11 90 1009.2
20260509134009 49 275 5.0 13.0 0.03 0.17 0.11 90 1009.2
20260509133506 49 147 5.0 13.0 0.04 0.17 0.11 90 1009.1
20260509133024 49 190 3.0 11.0 0.04 0.17 0.11 90 1009.1
20260509132510 49 200 4.0 11.0 0.05 0.17 0.11 90 1009.3
20260509132011 49 146 5.0 11.0 0.05 0.17 0.11 90 1009.3
20260509131525 48 216 4.0 7.0 0.05 0.16 0.10 90 1009.3
20260509131012 48 201 5.0 12.0 0.05 0.16 0.10 90 1009.2
20260509130509 48 189 4.0 12.0 0.05 0.16 0.10 89 1009.3
20260509130011 48 229 4.0 12.0 0.05 0.16 0.10 89 1009.2
20260509125504 48 172 5.0 13.0 0.04 0.15 0.09 89 1009.3
20260509125003 48 174 6.0 16.0 0.04 0.15 0.09 89 1009.3
20260509124516 48 179 7.0 16.0 0.03 0.14 0.08 89 1009.3
20260509124006 48 210 4.0 12.0 0.03 0.14 0.08 89 1009.3
20260509123508 48 192 4.0 12.0 0.03 0.13 0.07 89 1009.3
20260509123018 48 201 5.0 11.0 0.03 0.13 0.07 89 1009.3
20260509122509 48 195 4.0 11.0 0.02 0.12 0.06 89 1009.2
20260509122009 48 215 5.0 11.0 0.02 0.12 0.06 89 1009.3
20260509121526 48 196 4.0 11.0 0.01 0.11 0.05 88 1009.2
20260509121010 48 162 3.0 11.0 0.01 0.11 0.05 88 1009.2
20260509120508 48 200 5.0 10.0 0.01 0.11 0.05 88 1009.2
20260509120026 48 184 3.0 10.0 0.01 0.11 0.05 88 1009.4
20260509115515 48 198 4.0 10.0 0.02 0.11 0.05 88 1009.4
20260509115003 48 190 4.0 9.0 0.02 0.11 0.05 88 1009.3
20260509114510 48 162 3.0 9.0 0.02 0.11 0.05 88 1009.3
20260509114004 48 176 4.0 9.0 0.02 0.11 0.05 88 1009.3
20260509113507 48 168 3.0 8.0 0.01 0.10 0.04 87 1009.2
20260509113003 48 218 3.0 10.0 0.01 0.10 0.04 87 1009.2
20260509112509 48 186 4.0 10.0 0.01 0.10 0.04 87 1009.2
20260509112003 48 176 4.0 11.0 0.01 0.10 0.04 87 1009.2
20260509111504 48 189 4.0 11.0 0.01 0.10 0.04 87 1009.2
20260509111004 48 193 4.0 9.0 0.01 0.10 0.04 87 1009.3
20260509110501 48 181 4.0 8.0 0.01 0.10 0.04 86 1009.2
20260509110006 48 165 2.0 8.0 0.01 0.10 0.04 86 1009.2
20260509105504 48 199 4.0 8.0 0.00 0.09 0.03 86 1009.2
20260509105003 48 164 4.0 13.0 0.00 0.09 0.03 85 1009.2
20260509104508 48 190 5.0 13.0 0.00 0.09 0.03 85 1009.2
20260509104002 48 171 5.0 9.0 0.00 0.09 0.03 85 1009.1
20260509103503 48 184 5.0 9.0 0.00 0.09 0.03 85 1009.1
20260509103015 48 196 4.0 10.0 0.00 0.09 0.03 84 1009.1
20260509102505 48 188 5.0 10.0 0.00 0.09 0.03 84 1009.1
20260509102009 48 167 4.0 7.0 0.00 0.09 0.03 84 1009.1
20260509101518 48 190 4.0 7.0 0.00 0.09 0.03 84 1009.2
20260509101004 48 153 4.0 7.0 0.01 0.09 0.03 84 1009.3
20260509100503 48 174 4.0 6.0 0.01 0.09 0.03 84 1009.2
20260509100005 47 149 3.0 6.0 0.01 0.09 0.03 84 1009.3
20260509095504 47 154 3.0 6.0 0.01 0.09 0.03 84 1009.2
20260509095004 47 157 3.0 5.0 0.01 0.09 0.03 84 1009.2
20260509094505 47 153 3.0 5.0 0.01 0.09 0.03 84 1009.3
20260509094004 47 156 4.0 5.0 0.01 0.09 0.03 84 1009.2
20260509093503 47 141 3.0 5.0 0.01 0.09 0.03 84 1009.3
20260509093010 47 128 3.0 6.0 0.01 0.09 0.03 84 1009.3
20260509092505 47 124 4.0 6.0 0.01 0.09 0.03 84 1009.2
20260509092007 47 119 4.0 6.0 0.01 0.09 0.03 84 1009.2
20260509091513 47 110 5.0 6.0 0.01 0.09 0.03 85 1009.1
20260509091008 47 90 4.0 7.0 0.00 0.08 0.02 84 1009.3
20260509090507 47 113 6.0 7.0 0.00 0.08 0.02 84 1009.3
20260509090018 47 108 5.0 6.0 0.00 0.08 0.02 83 1009.3
20260509085503 47 115 4.0 6.0 0.00 0.08 0.02 83 1009.4
20260509085003 47 115 5.0 6.0 0.00 0.08 0.02 83 1009.4
20260509084509 47 103 4.0 6.0 0.00 0.08 0.02 83 1009.3
20260509084003 47 91 4.0 6.0 0.00 0.08 0.02 82 1009.3
20260509083503 48 89 3.0 4.0 0.00 0.08 0.02 82 1009.3
20260509083004 48 101 2.0 2.0 0.00 0.08 0.02 82 1009.4
20260509082503 48 114 0.0 1.0 0.00 0.08 0.02 82 1009.4
20260509082006 48 115 0.0 4.0 0.00 0.08 0.02 82 1009.4
20260509081515 48 115 2.0 4.0 0.00 0.08 0.02 83 1009.3
20260509081006 47 98 2.0 4.0 0.00 0.08 0.02 83 1009.1
20260509080507 47 89 3.0 4.0 0.00 0.08 0.02 84 1009.1
20260509080028 47 100 2.0 6.0 0.00 0.08 0.02 84 1009.2
20260509075506 47 104 3.0 7.0 0.00 0.08 0.02 85 1009.2
20260509072504 46 78 5.0 8.0 0.00 0.08 0.02 86 1009.2
20260509072002 46 95 6.0 8.0 0.00 0.08 0.02 86 1009.3
20260509071509 46 94 5.0 7.0 0.00 0.08 0.02 86 1009.4
20260509065007 46 91 5.0 6.0 0.00 0.08 0.02 87 1009.5
20260509064517 46 99 5.0 6.0 0.00 0.08 0.02 87 1009.6
20260509064013 46 93 4.0 7.0 0.00 0.08 0.02 88 1009.7
20260509061513 45 91 5.0 7.0 0.00 0.08 0.02 88 1010.1
20260509061005 45 80 3.0 6.0 0.00 0.08 0.02 88 1010.1
20260509060503 45 75 4.0 6.0 0.00 0.08 0.02 88 1010.2
20260509060010 45 85 4.0 6.0 0.00 0.08 0.02 88 1010.2
20260509055503 45 79 4.0 6.0 0.00 0.08 0.02 88 1010.4
20260509055003 45 85 3.0 6.0 0.00 0.08 0.02 87 1010.4
20260509054518 46 70 4.0 6.0 0.00 0.08 0.02 87 1010.5
20260509054006 46 72 3.0 5.0 0.00 0.08 0.02 87 1010.4
20260509053506 46 87 3.0 6.0 0.00 0.08 0.02 86 1010.5
20260509053028 46 77 2.0 6.0 0.01 0.08 0.02 86 1010.6
20260509052508 46 46 2.0 5.0 0.01 0.08 0.02 86 1010.7
20260509052008 46 55 2.0 5.0 0.01 0.08 0.02 86 1010.6
20260509051533 46 85 2.0 5.0 0.01 0.08 0.02 87 1010.7
20260509051007 46 72 2.0 5.0 0.01 0.08 0.02 87 1010.7
20260509050504 46 85 2.0 6.0 0.01 0.08 0.02 87 1010.8
20260509050008 46 63 2.0 6.0 0.02 0.08 0.02 87 1011.0
20260509045503 46 75 3.0 5.0 0.02 0.08 0.02 87 1011.1
20260509045003 46 86 3.0 5.0 0.02 0.08 0.02 87 1011.2
20260509044510 46 61 2.0 5.0 0.02 0.08 0.02 87 1011.3
20260509044003 46 75 3.0 5.0 0.02 0.08 0.02 87 1011.3
20260509043504 46 64 2.0 6.0 0.02 0.08 0.02 87 1011.4
20260509043016 46 88 3.0 6.0 0.01 0.07 0.01 87 1011.4
20260509042510 46 81 2.0 4.0 0.02 0.07 0.01 86 1011.5
20260509042006 46 80 2.0 4.0 0.02 0.07 0.01 86 1011.5
20260509041520 46 82 2.0 4.0 0.02 0.07 0.01 86 1011.6
20260509041009 46 69 3.0 4.0 0.02 0.07 0.01 86 1011.8
20260509040507 46 79 3.0 4.0 0.03 0.07 0.01 86 1011.8
20260509040022 46 82 3.0 4.0 0.02 0.06 0.00 85 1011.9
20260509035507 46 94 2.0 4.0 0.02 0.06 0.06 85 1012.0
20260509035009 46 102 2.0 4.0 0.02 0.06 0.06 86 1012.1
20260509034508 46 94 3.0 4.0 0.02 0.06 0.06 86 1012.0
20260509034004 46 101 3.0 4.0 0.02 0.06 0.06 86 1012.0
20260509033504 46 114 3.0 4.0 0.02 0.06 0.06 86 1012.1
20260509033012 46 105 2.0 4.0 0.02 0.06 0.06 85 1012.2
20260509032507 47 114 1.0 3.0 0.02 0.05 0.05 85 1012.3
20260509032009 47 93 2.0 3.0 0.02 0.05 0.05 84 1012.2
20260509031518 47 77 0.0 1.0 0.02 0.05 0.05 84 1012.4
20260509031009 47 77 0.0 2.0 0.02 0.05 0.05 85 1012.4
20260509030508 47 70 0.0 3.0 0.01 0.04 0.04 85 1012.3
20260509030022 47 91 1.0 3.0 0.01 0.04 0.04 84 1012.4
20260509025509 47 87 2.0 3.0 0.01 0.04 0.04 84 1012.3
20260509025011 47 73 2.0 3.0 0.01 0.04 0.04 84 1012.3
20260509024523 47 89 2.0 3.0 0.01 0.04 0.04 83 1012.4
20260509024009 47 102 1.0 2.0 0.01 0.04 0.04 82 1012.4
20260509023512 47 103 0.0 2.0 0.01 0.04 0.04 83 1012.3
20260509023010 47 94 1.0 2.0 0.01 0.04 0.04 82 1012.4
20260509022503 48 82 0.0 0.0 0.00 0.03 0.03 81 1012.4
20260509022007 48 82 0.0 0.0 0.00 0.03 0.03 81 1012.5
20260509021515 48 82 0.0 0.0 0.00 0.03 0.03 81 1012.4
20260509021007 48 81 0.0 0.0 0.00 0.03 0.03 81 1012.4
20260509020506 48 81 0.0 0.0 0.00 0.03 0.03 82 1012.2
20260509020019 48 81 0.0 0.0 0.00 0.03 0.03 82 1012.0
20260509015506 48 81 0.0 0.0 0.00 0.03 0.03 82 1011.9
20260509015006 47 81 0.0 1.0 0.00 0.03 0.03 82 1011.9
20260509014535 47 81 0.0 3.0 0.00 0.03 0.03 82 1011.8
20260509014006 47 81 1.0 3.0 0.00 0.03 0.03 82 1011.7
20260509013509 47 102 1.0 2.0 0.00 0.03 0.03 82 1011.8
20260509013024 48 117 1.0 2.0 0.00 0.03 0.03 82 1011.8
20260509012510 48 169 0.0 0.0 0.00 0.03 0.03 82 1011.8
20260509012011 48 169 0.0 1.0 0.00 0.03 0.03 81 1011.8
20260509011526 48 217 0.0 1.0 0.00 0.03 0.03 81 1011.8
20260509011003 48 235 0.0 2.0 0.00 0.03 0.03 81 1011.8
20260509010507 48 221 0.0 2.0 0.00 0.03 0.03 82 1011.8
20260509010013 48 227 1.0 2.0 0.00 0.03 0.03 82 1011.7
20260509005509 47 236 1.0 2.0 0.00 0.03 0.03 83 1011.6
20260509005002 47 233 0.0 0.0 0.00 0.03 0.03 84 1011.5
20260509004503 47 191 0.0 0.0 0.00 0.03 0.03 84 1011.5
20260509004003 47 193 0.0 0.0 0.00 0.03 0.03 84 1011.4
20260509003504 47 163 0.0 0.0 0.00 0.03 0.03 84 1011.4
20260509003006 47 165 0.0 0.0 0.00 0.03 0.03 84 1011.3
20260509002503 47 160 0.0 0.0 0.00 0.03 0.03 84 1011.3
20260509002003 47 139 0.0 0.0 0.00 0.03 0.03 84 1011.3
20260509001507 47 137 0.0 0.0 0.00 0.03 0.03 83 1011.1
20260509001003 47 125 0.0 1.0 0.00 0.03 0.03 83 1011.1
20260509000504 47 196 0.0 1.0 0.01 0.03 0.03 82 1011.3
20260509000012 47 203 0.0 1.0 0.01 0.03 0.03 82 1011.3
20260508235508 47 188 0.0 0.0 0.01 0.03 0.03 82 1011.3
20260508235006 48 195 0.0 2.0 0.01 0.03 0.03 81 1011.3
20260508234516 48 209 0.0 2.0 0.01 0.03 0.03 81 1011.3
20260508234007 48 225 0.0 3.0 0.01 0.03 0.03 81 1011.3
20260508233502 48 244 1.0 3.0 0.01 0.03 0.03 81 1011.3
20260508233004 48 257 0.0 4.0 0.01 0.03 0.03 81 1011.3
20260508232505 48 267 1.0 4.0 0.02 0.03 0.03 80 1011.3
20260508232003 48 236 2.0 5.0 0.02 0.03 0.03 80 1011.2
20260508231504 48 252 2.0 5.0 0.02 0.03 0.03 80 1011.2
20260508231002 48 262 3.0 7.0 0.02 0.03 0.03 80 1011.4
20260508230502 48 274 3.0 10.0 0.01 0.02 0.02 79 1011.3
20260508230007 48 291 6.0 10.0 0.01 0.02 0.02 79 1011.1
20260508225502 48 285 6.0 12.0 0.01 0.02 0.02 79 1011.1
20260508225005 48 280 7.0 17.0 0.01 0.02 0.02 79 1011.2
20260508224512 48 283 6.0 17.0 0.01 0.02 0.02 79 1011.3
20260508224006 48 295 8.0 21.0 0.01 0.02 0.02 78 1011.3
20260508223509 48 269 8.0 21.0 0.01 0.02 0.02 78 1011.5
20260508223024 49 257 11.0 17.0 0.01 0.02 0.02 75 1011.4
20260508222507 49 262 8.0 17.0 0.00 0.01 0.01 75 1011.6
20260508222002 50 233 7.0 18.0 0.00 0.01 0.01 73 1011.8
20260508221007 51 236 8.0 18.0 0.00 0.01 0.01 72 1011.8
20260508220507 51 241 8.0 18.0 0.00 0.01 0.01 71 1011.8
20260508220003 51 269 5.0 18.0 0.00 0.01 0.01 71 1011.8
20260508215505 51 270 9.0 18.0 0.00 0.01 0.01 71 1011.6
20260508215005 51 226 7.0 15.0 0.00 0.01 0.01 70 1011.7
20260508214508 51 252 7.0 14.0 0.00 0.01 0.01 70 1011.7
20260508214011 51 244 4.0 11.0 0.00 0.01 0.01 71 1011.7
20260508213503 52 257 3.0 11.0 0.00 0.01 0.01 70 1011.6
20260508213014 52 259 5.0 17.0 0.00 0.01 0.01 70 1011.6
20260508212508 52 265 5.0 17.0 0.00 0.01 0.01 70 1011.6
20260508212009 52 253 7.0 17.0 0.00 0.01 0.01 69 1011.6
20260508211528 52 289 3.0 15.0 0.00 0.01 0.01 70 1011.6
20260508211010 52 233 7.0 22.0 0.00 0.01 0.01 70 1011.7
20260508210503 52 249 9.0 22.0 0.00 0.01 0.01 70 1011.6
20260508210005 52 215 6.0 13.0 0.00 0.01 0.01 70 1011.7
20260508205502 52 272 5.0 21.0 0.00 0.01 0.01 70 1011.6
20260508205004 52 276 5.0 24.0 0.00 0.01 0.01 70 1011.5
20260508204508 51 281 11.0 24.0 0.00 0.01 0.01 70 1011.7
20260508204005 51 272 9.0 23.0 0.00 0.01 0.01 70 1011.5
20260508203503 51 271 11.0 23.0 0.00 0.01 0.01 70 1011.5
20260508203010 51 148 11.0 19.0 0.00 0.01 0.01 70 1011.4
20260508202504 51 240 10.0 19.0 0.00 0.01 0.01 71 1011.6
20260508202007 51 269 10.0 18.0 0.00 0.01 0.01 71 1011.6
20260508201516 52 259 9.0 18.0 0.00 0.01 0.01 71 1011.8
20260508201007 52 223 7.0 15.0 0.00 0.01 0.01 71 1011.8
20260508200508 52 252 7.0 15.0 0.01 0.01 0.01 71 1011.8
20260508200027 52 277 8.0 15.0 0.01 0.01 0.01 70 1011.7
20260508195506 52 269 5.0 11.0 0.01 0.01 0.01 71 1011.8
20260508195006 52 266 5.0 12.0 0.01 0.01 0.01 71 1011.9
20260508194512 52 236 5.0 12.0 0.01 0.01 0.01 72 1011.9
20260508194003 51 221 4.0 11.0 0.01 0.01 0.01 74 1012.0
20260508193504 51 285 4.0 11.0 0.01 0.01 0.01 74 1012.0
20260508193009 51 259 2.0 9.0 0.01 0.01 0.01 75 1012.1
20260508192502 51 277 2.0 11.0 0.01 0.01 0.01 75 1012.0
20260508192004 51 265 4.0 17.0 0.01 0.01 0.01 74 1012.1
20260508191519 51 250 5.0 24.0 0.01 0.01 0.01 73 1012.0
20260508191004 51 250 15.0 24.0 0.01 0.01 0.01 71 1012.0
20260508190507 51 238 8.0 16.0 0.00 0.00 0.00 72 1011.9
20260508190020 51 224 2.0 5.0 0.00 0.00 0.00 72 1012.0
20260508185508 51 293 3.0 5.0 0.00 0.00 0.00 70 1011.8
20260508185009 51 307 2.0 6.0 0.00 0.00 0.00 70 1011.8
20260508184521 51 287 2.0 6.0 0.00 0.00 0.00 69 1011.8
20260508184007 51 286 1.0 8.0 0.00 0.00 0.00 70 1011.8
20260508183510 52 278 2.0 9.0 0.00 0.00 0.00 69 1011.9
20260508183006 52 309 3.0 9.0 0.00 0.00 0.00 66 1011.7
20260508182504 54 299 4.0 8.0 0.00 0.00 0.00 62 1011.4
20260508182004 54 309 3.0 6.0 0.00 0.00 0.00 60 1011.8
20260508181510 54 207 0.0 8.0 0.00 0.00 0.00 59 1011.5
20260508181004 54 264 3.0 10.0 0.00 0.00 0.00 57 1011.6
20260508180504 55 262 3.0 14.0 0.00 0.00 0.00 56 1011.7
20260508180018 55 283 6.0 15.0 0.00 0.00 0.00 56 1011.7
20260508175507 55 282 7.0 15.0 0.00 0.00 0.00 55 1011.7
20260508175003 55 276 6.0 20.0 0.00 0.00 0.00 55 1011.7
20260508174507 55 262 9.0 20.0 0.00 0.00 0.00 54 1011.6
20260508174002 55 250 10.0 20.0 0.00 0.00 0.00 52 1011.5
20260508173502 56 233 8.0 15.0 0.00 0.00 0.00 53 1011.6
20260508173003 56 243 6.0 15.0 0.00 0.00 0.00 53 1011.5
20260508172503 56 245 7.0 14.0 0.00 0.00 0.00 53 1011.6
20260508172003 56 278 5.0 14.0 0.00 0.00 0.00 56 1011.8
20260508171521 55 260 8.0 14.0 0.00 0.00 0.00 54 1012.0
20260508171002 55 219 5.0 13.0 0.00 0.00 0.00 54 1012.0
20260508170503 54 300 7.0 14.0 0.00 0.00 0.00 55 1012.3
20260508170013 54 255 5.0 14.0 0.00 0.00 0.00 55 1012.4
20260508165502 54 257 9.0 14.0 0.00 0.00 0.00 55 1012.5
20260508165001 55 269 2.0 16.0 0.00 0.00 0.00 57 1012.4
20260508164503 54 247 9.0 16.0 0.00 0.00 0.00 57 1012.3
20260508164003 54 280 5.0 14.0 0.00 0.00 0.00 58 1012.4
20260508163502 54 252 6.0 15.0 0.00 0.00 0.00 57 1012.4
20260508163003 54 261 5.0 15.0 0.00 0.00 0.00 58 1012.5
20260508162502 54 228 4.0 12.0 0.00 0.00 0.00 59 1012.7